Bloomington, IL

12:57 PM CST on December 13, 2017 (GMT -0600)
Central Ill Regional

Weather History for KBMI - October, 2011

Change the Weather History Date:

Friday, October 7, 2011

  Actual Average Record
Temperature  
Mean Temperature 68 °F -  
Max Temperature 83 °F 57 °F 90 °F (2007)
Min Temperature 54 °F 46 °F 30 °F (2000)
Cooling Degree Days 4    
Growing Degree Days 18 (Base 50)    
Moisture  
Dew Point 53 °F    
Average Humidity 62    
Maximum Humidity 84    
Minimum Humidity 36    
Precipitation  
Precipitation 0.00 in - - ()
Sea Level Pressure  
Sea Level Pressure 30.25 in    
Wind  
Wind Speed 12 mph (SSE)    
Max Wind Speed 21 mph    
Max Gust Speed -    
Visibility 10 miles    
Events      
Averages and records for this station are not official NWS values.
T = Trace of Precipitation, MM = Missing Value Source: NWS Daily Summary

Daily Weather History Graph

Daily Weather History Graph

Search for Another Location

Airport or City:

Trip Planner

Search our weather history database for the weather conditions in past years. The results will help you decide how hot, cold, wet, or windy it might be!

Date:

Astronomy

Oct. 07, 2011 Rise Set
Actual Time 6:57 AM CDT 6:28 PM CDT
Civil Twilight 6:30 AM CDT 6:55 PM CDT
Nautical Twilight 5:59 AM CDT 7:27 PM CDT
Astronomical Twilight 5:27 AM CDT 7:58 PM CDT
Moon 4:12 PM CDT (10/7) 2:45 AM CDT (10/7)
Length of Visible Light 12h 25m
Length of Day
11h 30m
Waxing Gibbous, 83% of the Moon is Illuminated
Oct 7
Waxing Gibbous
Oct 11
Full
Oct 19
Last Quarter
Oct 26
New
Nov 2
First Quarter

Hourly Weather History & Observations

Time (CDT) Temp. Heat Index Dew Point Humidity Pressure Visibility Wind Dir Wind Speed Gust Speed Precip Events Conditions
12:56 AM 62.6 °F - 51.8 °F 68% 30.23 in 10.0 mi SE 11.5 mph - N/A   Clear
1:56 AM 61.0 °F - 52.9 °F 75% 30.21 in 10.0 mi SSE 12.7 mph - N/A   Clear
2:56 AM 59.0 °F - 50.9 °F 74% 30.21 in 10.0 mi SSE 11.5 mph - N/A   Clear
3:56 AM 57.2 °F - 51.8 °F 82% 30.25 in 10.0 mi SSE 10.4 mph - N/A   Clear
4:56 AM 55.9 °F - 50.0 °F 80% 30.25 in 10.0 mi South 5.8 mph - N/A   Clear
5:56 AM 54.9 °F - 50.0 °F 84% 30.27 in 10.0 mi SSE 6.9 mph - N/A   Clear
6:56 AM 55.9 °F - 50.0 °F 80% 30.29 in 10.0 mi SSE 6.9 mph - N/A   Clear
8:56 AM 66.9 °F - 54.9 °F 65% 30.31 in 10.0 mi SSE 6.9 mph - N/A   Clear
9:56 AM 70.9 °F - 55.9 °F 59% 30.31 in 10.0 mi South 10.4 mph - N/A   Clear
10:56 AM 77.9 °F - 55.9 °F 47% 30.30 in 10.0 mi SSW 15.0 mph - N/A   Clear
11:56 AM 81.9 °F 81.2 °F 54.9 °F 39% 30.27 in 10.0 mi South 20.7 mph - N/A   Clear
1:56 PM 83.8 °F 82.6 °F 54.0 °F 36% 30.22 in 10.0 mi South 19.6 mph - N/A   Clear
4:56 PM 81.9 °F - 52.9 °F 37% 30.20 in 10.0 mi SSE 17.3 mph - N/A   Clear
5:56 PM 79.0 °F - 52.0 °F 39% 30.21 in 10.0 mi South 17.3 mph - N/A   Clear
6:56 PM 72.9 °F - 52.0 °F 48% 30.23 in 10.0 mi South 11.5 mph - N/A   Clear
7:56 PM 70.0 °F - 52.9 °F 55% 30.24 in 10.0 mi SSE 11.5 mph - N/A   Clear
8:56 PM 70.0 °F - 52.9 °F 55% 30.24 in 10.0 mi SSE 11.5 mph - N/A   Clear
9:56 PM 65.8 °F - 52.9 °F 63% 30.25 in 10.0 mi SSE 11.5 mph - N/A   Clear
10:56 PM 61.9 °F - 52.9 °F 72% 30.25 in 10.0 mi South 8.1 mph - N/A   Clear
11:56 PM 59.9 °F - 52.9 °F 78% 30.25 in 10.0 mi South 9.2 mph - N/A   Clear